FW2982 Weather Reports


time (UTC)temp
C
wind
direction
speed
KPH
gust
KPH
rain 1hr
cm
rain 24hr
cm
rain mn
cm
humidity
%
barometer
mb
20260902202142 23 73 0.0 0.0 0.00 0.46 0.46 94 1015.9
20260902201639 23 73 0.0 0.0 0.00 0.46 0.46 94 1015.9
20260902201135 23 73 0.0 0.0 0.00 0.46 0.46 95 1016.0
20260902200634 23 73 0.0 1.6 0.00 0.46 0.46 94 1016.2
20260902200411 23 73 0.0 1.6 0.00 0.46 0.46 94 1016.1
20260902195634 23 73 0.0 0.0 0.00 0.46 0.46 94 1016.4
20260902195134 23 73 0.0 0.0 0.00 0.46 0.46 94 1016.6
20260902194633 23 73 0.0 0.0 0.03 0.46 0.46 94 1016.5
20260902194134 23 73 0.0 0.0 0.05 0.46 0.46 94 1016.2
20260902193632 23 73 0.0 0.0 0.08 0.46 0.46 94 1016.0
20260902193130 23 73 0.0 0.0 0.10 0.46 0.46 93 1015.9
20260902192632 23 73 0.0 1.6 0.15 0.46 0.46 93 1015.9
20260902192131 23 73 0.0 3.2 0.20 0.46 0.46 93 1015.7
20260902191631 23 73 1.6 3.2 0.30 0.46 0.46 93 1016.0
20260902191132 23 68 0.0 1.6 0.43 0.46 0.46 93 1015.9
20260902190630 23 68 0.0 3.2 0.46 0.46 0.46 93 1016.0
20260902190131 23 68 0.0 4.8 0.46 0.46 0.46 93 1016.1
20260902185630 23 68 3.2 4.8 0.46 0.00 0.46 92 1015.9
20260902185132 23 116 1.6 3.2 0.46 0.00 0.43 92 1016.2
20260902184631 23 127 1.6 3.2 0.43 0.00 0.43 92 1016.0
20260902184131 23 86 1.6 4.8 0.41 0.00 0.41 92 1016.0
20260902183631 23 87 3.2 6.4 0.38 0.00 0.38 92 1016.4
20260902183130 23 71 1.6 8.0 0.36 0.00 0.33 91 1016.2
20260902182631 23 49 3.2 14.5 0.30 0.00 0.30 90 1016.5
20260902182130 23 82 4.8 14.5 0.25 0.00 0.23 87 1017.2
20260902181630 25 87 4.8 19.3 0.15 0.00 0.15 83 1017.2
20260902181130 28 18 12.9 19.3 0.03 0.00 0.00 74 1017.3
20260902180629 30 72 4.8 20.9 0.00 0.00 0.00 66 1017.1
20260902180408 32 149 8.0 20.9 0.00 0.00 0.00 66 1016.9
20260902175629 32 47 3.2 8.0 0.00 0.00 0.00 69 1016.5
20260902175129 31 44 3.2 8.0 0.00 0.00 0.00 69 1016.5
20260902174629 32 87 3.2 8.0 0.00 0.00 0.00 68 1016.6
20260902174129 32 68 4.8 8.0 0.00 0.00 0.00 67 1016.7
20260902173629 32 38 3.2 8.0 0.00 0.00 0.00 67 1016.6
20260902173130 32 120 6.4 8.0 0.00 0.00 0.00 68 1016.5
20260902172629 33 56 3.2 4.8 0.00 0.00 0.00 68 1016.5
20260902172129 33 51 3.2 4.8 0.00 0.00 0.00 66 1016.6
20260902171629 32 24 1.6 4.8 0.00 0.00 0.00 68 1016.5
20260902171409 33 100 1.6 4.8 0.00 0.00 0.00 63 1016.5
20260902170629 33 102 3.2 4.8 0.00 0.00 0.00 62 1016.5
20260902170129 33 76 3.2 4.8 0.00 0.00 0.00 63 1016.2
20260902165628 34 68 0.0 4.8 0.00 0.00 0.00 63 1016.2
20260902165130 33 68 0.0 4.8 0.00 0.00 0.00 63 1016.3
20260902164905 33 61 0.0 4.8 0.00 0.00 0.00 65 1016.3
20260902164128 33 65 0.0 4.8 0.00 0.00 0.00 65 1016.4
20260902163628 33 30 1.6 4.8 0.00 0.00 0.00 69 1016.3
20260902163127 32 100 1.6 4.8 0.00 0.00 0.00 63 1016.3
20260902162627 33 66 1.6 6.4 0.00 0.00 0.00 64 1016.4
20260902162127 33 62 0.0 6.4 0.00 0.00 0.00 65 1016.4
20260902161628 32 44 0.0 3.2 0.00 0.00 0.00 66 1016.4
20260902161127 32 42 0.0 3.2 0.00 0.00 0.00 65 1016.3
20260902160627 33 45 0.0 6.4 0.00 0.00 0.00 67 1016.2
20260902160127 33 47 0.0 6.4 0.00 0.00 0.00 65 1016.2
20260902155627 34 128 0.0 3.2 0.00 0.00 0.00 62 1016.2
20260902155127 33 128 0.0 3.2 0.00 0.00 0.00 62 1016.3
20260902154628 33 131 0.0 3.2 0.00 0.00 0.00 62 1016.2
20260902154151 32 90 0.0 8.0 0.00 0.00 0.00 67 1016.2
20260902154142 33 130 1.6 3.2 0.00 0.00 0.00 64 1016.1
20260902153126 32 89 1.6 8.0 0.00 0.00 0.00 64 1016.3
20260902152627 32 69 3.2 8.0 0.00 0.00 0.00 62 1016.3
20260902152406 32 72 0.0 3.2 0.00 0.00 0.00 64 1016.2
20260902151626 33 66 0.0 4.8 0.00 0.00 0.00 64 1016.2
20260902151127 32 73 0.0 4.8 0.00 0.00 0.00 71 1016.2
20260902150626 32 42 1.6 4.8 0.00 0.00 0.00 66 1016.2
20260902150125 32 65 0.0 3.2 0.00 0.00 0.00 66 1016.1
20260902145906 31 65 0.0 8.0 0.00 0.00 0.00 68 1016.2
20260902145125 31 65 1.6 8.0 0.00 0.00 0.00 69 1016.2
20260902144626 31 109 0.0 4.8 0.00 0.00 0.00 69 1016.2
20260902144403 31 100 1.6 4.8 0.00 0.00 0.00 67 1016.1
20260902143625 31 97 1.6 4.8 0.00 0.00 0.00 68 1016.1
20260902143125 31 144 0.0 4.8 0.00 0.00 0.00 71 1016.0
20260902142904 31 72 1.6 4.8 0.00 0.00 0.00 70 1016.2
20260902142126 31 63 1.6 4.8 0.00 0.00 0.00 69 1016.1
20260902141624 31 48 3.2 6.4 0.00 0.00 0.00 71 1016.1
20260902141404 30 87 1.6 6.4 0.00 0.00 0.00 70 1016.1
20260902140624 30 44 0.0 1.6 0.00 0.00 0.00 72 1016.3
20260902140125 30 39 0.0 1.6 0.00 0.00 0.00 71 1016.3
20260902135622 30 92 0.0 3.2 0.00 0.00 0.00 71 1016.2
20260902135123 30 92 0.0 3.2 0.00 0.00 0.00 74 1016.1
20260902134622 30 92 0.0 3.2 0.00 0.00 0.00 73 1016.1
20260902134123 30 92 0.0 4.8 0.00 0.00 0.00 73 1016.0
20260902133623 29 59 1.6 4.8 0.00 0.00 0.00 75 1016.1
20260902133122 30 32 1.6 3.2 0.00 0.00 0.00 76 1016.1
20260902132621 29 30 0.0 3.2 0.00 0.00 0.00 77 1016.2
20260902132120 28 30 1.6 4.8 0.00 0.00 0.00 81 1016.1
20260902131621 28 30 1.6 4.8 0.00 0.00 0.00 78 1016.0
20260902131122 28 24 0.0 3.2 0.00 0.00 0.00 81 1016.1
20260902130620 27 24 0.0 1.6 0.00 0.00 0.00 81 1016.0
20260902130122 27 24 0.0 0.0 0.00 0.00 0.00 82 1016.0
20260902125622 26 24 0.0 0.0 0.00 0.00 0.00 82 1016.0
20260902125122 26 24 0.0 3.2 0.00 0.00 0.00 83 1016.0
20260902124620 26 24 0.0 3.2 0.00 0.00 0.00 83 1016.0
20260902124121 26 21 0.0 3.2 0.00 0.00 0.00 86 1015.9
20260902123647 25 252 1.6 3.2 0.00 0.00 0.00 89 1015.8
20260902123637 25 276 0.0 3.2 0.00 0.00 0.00 87 1015.9
20260902122620 25 252 0.0 3.2 0.00 0.00 0.00 92 1015.9
20260902122120 24 251 1.6 3.2 0.00 0.00 0.00 93 1015.8
20260902121619 24 252 0.0 0.0 0.00 0.00 0.00 95 1015.9
20260902121119 23 252 0.0 0.0 0.00 0.00 0.00 95 1016.0
20260902120619 23 252 0.0 0.0 0.00 0.00 0.00 96 1015.9
20260902120121 22 252 0.0 0.0 0.00 0.00 0.00 96 1015.9
20260902115619 22 252 0.0 0.0 0.00 0.00 0.00 96 1016.0
20260902115119 22 251 0.0 0.0 0.00 0.00 0.00 96 1015.8
20260902114857 22 251 0.0 0.0 0.00 0.00 0.00 96 1015.7
20260902114118 22 251 0.0 0.0 0.00 0.00 0.00 96 1015.7
20260902113618 22 251 0.0 0.0 0.00 0.00 0.00 96 1015.6
20260902113118 22 251 0.0 0.0 0.00 0.00 0.00 96 1015.7
20260902112618 21 251 0.0 0.0 0.00 0.00 0.00 96 1015.5
20260902112118 22 251 0.0 0.0 0.00 0.00 0.00 96 1015.5
20260902111618 22 251 0.0 0.0 0.00 0.00 0.00 96 1015.6
20260902111118 22 251 0.0 0.0 0.00 0.00 0.00 96 1015.7
20260902110618 22 251 0.0 0.0 0.00 0.00 0.00 96 1015.8
20260902110119 22 251 0.0 0.0 0.00 0.00 0.00 96 1015.7
20260902105617 21 251 0.0 0.0 0.00 0.00 0.00 95 1015.6
20260902105355 21 251 0.0 0.0 0.00 0.00 0.00 95 1015.7
20260902104618 21 251 0.0 0.0 0.00 0.00 0.00 95 1015.8
20260902104107 21 251 0.0 0.0 0.00 0.00 0.00 95 1015.8
20260902103606 21 251 0.0 0.0 0.00 0.00 0.00 95 1015.7
20260902103104 21 251 0.0 0.0 0.00 0.00 0.00 95 1015.7
20260902102603 21 252 0.0 0.0 0.00 0.00 0.00 95 1015.7
20260902102105 22 251 0.0 0.0 0.00 0.00 0.00 95 1015.7
20260902101603 22 252 0.0 0.0 0.00 0.00 0.00 95 1015.7
20260902101104 22 251 0.0 0.0 0.00 0.00 0.00 95 1015.6
20260902100840 22 251 0.0 0.0 0.00 0.00 0.00 95 1015.5
20260902095601 22 251 0.0 0.0 0.00 0.00 0.00 95 1015.5
20260902095103 22 251 0.0 0.0 0.00 0.00 0.00 95 1015.4
20260902094843 22 251 0.0 0.0 0.00 0.00 0.00 95 1015.4
20260902094102 22 251 0.0 0.0 0.00 0.00 0.00 95 1015.4
20260902093602 22 251 0.0 0.0 0.00 0.00 0.00 95 1015.3
20260902093103 22 251 0.0 0.0 0.00 0.00 0.00 95 1015.4
20260902092602 22 251 0.0 0.0 0.00 0.00 0.00 95 1015.4
20260902092102 22 251 0.0 0.0 0.00 0.00 0.00 95 1015.5
20260902091602 22 252 0.0 0.0 0.00 0.00 0.00 95 1015.4
20260902091102 22 251 0.0 0.0 0.00 0.00 0.00 95 1015.5
20260902090603 22 251 0.0 0.0 0.00 0.00 0.00 95 1015.4
20260902090034 22 251 0.0 0.0 0.00 0.00 0.00 95 1015.4
20260902085532 22 251 0.0 0.0 0.00 0.00 0.00 95 1015.3
20260902085031 22 252 0.0 0.0 0.00 0.00 0.00 95 1015.4
20260902084523 22 251 0.0 0.0 0.00 0.00 0.00 95 1015.3
20260902084018 22 251 0.0 0.0 0.00 0.00 0.00 95 1015.3
20260902083519 22 251 0.0 0.0 0.00 0.00 0.00 95 1015.3
20260902083015 22 251 0.0 0.0 0.00 0.00 0.00 95 1015.3
20260902082515 22 251 0.0 0.0 0.00 0.00 0.00 94 1015.4
20260902082016 22 251 0.0 0.0 0.00 0.00 0.00 94 1015.3
20260902081514 22 251 0.0 0.0 0.00 0.00 0.00 94 1015.3
20260902081014 22 251 0.0 0.0 0.00 0.00 0.00 94 1015.2
20260902080514 22 251 0.0 0.0 0.00 0.00 0.00 94 1015.2
20260902080014 22 251 0.0 0.0 0.00 0.00 0.00 94 1015.0
20260902075515 22 251 0.0 0.0 0.00 0.00 0.00 94 1015.1
20260902075252 22 251 0.0 0.0 0.00 0.00 0.00 94 1015.0
20260902074753 22 251 0.0 0.0 0.00 0.00 0.00 94 1015.0
20260902074014 22 251 0.0 0.0 0.00 0.00 0.00 94 1015.1
20260902073513 22 252 0.0 0.0 0.00 0.00 0.00 94 1015.0
20260902073014 22 251 0.0 0.0 0.00 0.00 0.00 94 1015.0
20260902072504 22 251 0.0 0.0 0.00 0.00 0.00 94 1015.1
20260902072003 22 251 0.0 0.0 0.00 0.00 0.00 94 1015.0
20260902071503 22 251 0.0 0.0 0.00 0.00 0.00 94 1014.9
20260902070933 22 251 0.0 0.0 0.00 0.00 0.00 94 1014.9
20260902070433 22 251 0.0 0.0 0.00 0.00 0.00 94 1014.9
20260902065933 22 251 0.0 0.0 0.00 0.00 0.00 94 1014.8
20260902065431 22 251 0.0 0.0 0.00 0.00 0.00 94 1014.9
20260902064931 22 252 0.0 0.0 0.00 0.00 0.00 94 1014.9
20260902064431 22 251 0.0 0.0 0.00 0.00 0.00 94 1014.8
20260902063933 22 251 0.0 0.0 0.00 0.00 0.00 94 1014.7
20260902063717 22 251 0.0 0.0 0.00 0.00 0.00 93 1014.8
20260902062931 23 251 0.0 0.0 0.00 0.00 0.00 94 1014.9
20260902062432 23 251 0.0 1.6 0.00 0.00 0.00 93 1014.9
20260902062238 23 251 0.0 0.0 0.00 0.00 0.00 93 1014.8
20260902061949 23 251 0.0 1.6 0.00 0.00 0.00 93 1014.8
20260902060912 23 251 0.0 0.0 0.00 0.00 0.00 94 1014.9
20260902060412 23 251 0.0 0.0 0.00 0.00 0.00 94 1014.8
20260902055912 23 251 0.0 1.6 0.00 0.00 0.00 94 1014.8
20260902055411 23 251 0.0 1.6 0.00 0.00 0.00 94 1014.9
20260902055153 23 251 0.0 1.6 0.00 0.00 0.00 93 1014.9
20260902054411 23 251 0.0 3.2 0.00 0.00 0.00 93 1014.9
20260902053912 23 251 1.6 3.2 0.00 0.00 0.00 93 1014.7
20260902053412 23 264 0.0 3.2 0.00 0.00 0.00 94 1014.8
20260902052911 23 264 0.0 4.8 0.00 0.00 0.00 93 1014.9
20260902052404 23 264 1.6 4.8 0.00 0.00 0.00 93 1014.9
20260902051903 23 262 0.0 0.0 0.00 0.00 0.00 93 1014.7
20260902051403 23 262 0.0 0.0 0.00 0.00 0.00 93 1014.7
20260902050901 23 262 0.0 0.0 0.00 0.00 0.00 93 1014.7
20260902050404 23 262 0.0 0.0 0.00 0.00 0.00 93 1014.7
20260902045904 23 262 0.0 0.0 0.00 0.00 0.00 93 1014.7
20260902045401 23 262 0.0 0.0 0.00 0.00 0.00 93 1014.6
20260902045144 23 262 0.0 0.0 0.00 0.00 0.00 93 1014.6
20260902044402 23 262 0.0 0.0 0.00 0.00 0.00 93 1014.5
20260902044138 23 262 0.0 0.0 0.00 0.00 0.00 93 1014.5
20260902043359 23 262 0.0 0.0 0.00 0.00 0.00 93 1014.4
20260902042858 23 262 0.0 0.0 0.00 0.00 0.00 93 1014.4
20260902042345 23 262 0.0 0.0 0.00 0.00 0.00 93 1014.3
20260902041845 23 262 0.0 0.0 0.00 0.00 0.00 93 1014.2
20260902041343 23 262 0.0 0.0 0.00 0.00 0.00 93 1014.2
20260902040844 23 262 0.0 0.0 0.00 0.00 0.00 92 1014.1
20260902040342 24 262 0.0 0.0 0.00 0.00 0.00 92 1014.1
20260902035839 24 262 0.0 0.0 0.00 0.00 0.00 92 1014.0
20260902035339 24 262 0.0 0.0 0.00 0.00 0.00 92 1014.0
20260902034838 24 262 0.0 0.0 0.00 0.00 0.00 92 1014.0
20260902034339 24 262 0.0 0.0 0.00 0.00 0.00 91 1014.0
20260902033831 24 262 0.0 0.0 0.00 0.00 0.00 91 1013.9
20260902033333 24 262 0.0 0.0 0.00 0.00 0.00 91 1013.9
20260902032831 25 262 0.0 0.0 0.00 0.00 0.00 91 1013.7
20260902032330 25 262 0.0 0.0 0.00 0.00 0.00 90 1013.7
20260902031817 25 262 0.0 0.0 0.00 0.00 0.00 90 1013.6
20260902031316 25 262 0.0 0.0 0.00 0.00 0.00 90 1013.5
20260902030812 25 262 0.0 0.0 0.00 0.00 0.00 90 1013.5
20260902030310 25 262 0.0 0.0 0.00 0.00 0.00 90 1013.3
20260902025807 25 262 0.0 0.0 0.00 0.00 0.00 89 1013.3
20260902025307 25 262 0.0 0.0 0.00 0.00 0.00 89 1013.3
20260902025048 25 262 0.0 0.0 0.00 0.00 0.00 88 1013.3
20260902024548 25 262 0.0 0.0 0.00 0.00 0.00 88 1013.4
20260902023809 25 262 0.0 0.0 0.00 0.00 0.00 87 1013.5
20260902023307 26 262 0.0 0.0 0.00 0.00 0.00 88 1013.6
20260902022808 26 262 0.0 0.0 0.00 0.00 0.00 86 1013.6
20260902022327 26 262 0.0 0.0 0.00 0.00 0.00 84 1013.8
20260902022319 26 262 0.0 0.0 0.00 0.00 0.00 84 1013.7
20260902021309 26 262 0.0 1.6 0.00 0.00 0.00 86 1013.8
20260902020807 26 262 0.0 1.6 0.00 0.00 0.00 88 1013.6
20260902020307 26 262 0.0 1.6 0.00 0.00 0.00 87 1013.6
20260902020045 26 262 0.0 1.6 0.00 0.00 0.00 87 1013.4
20260902015307 26 258 0.0 1.6 0.00 0.00 0.00 88 1013.4
20260902014806 26 258 0.0 3.2 0.00 0.00 0.00 89 1013.3
20260902014305 26 258 1.6 3.2 0.00 0.00 0.00 90 1013.3
20260902013807 26 258 0.0 0.0 0.00 0.00 0.00 89 1013.3
20260902013546 26 258 0.0 0.0 0.00 0.00 0.00 89 1013.3
20260902012805 26 258 0.0 0.0 0.00 0.00 0.00 89 1013.3
20260902012309 26 258 0.0 0.0 0.00 0.00 0.00 89 1013.3
20260902011805 26 258 0.0 0.0 0.00 0.00 0.00 89 1013.3
20260902011306 26 258 0.0 0.0 0.00 0.00 0.00 89 1013.2
20260902011044 26 258 0.0 1.6 0.00 0.00 0.00 88 1013.1
20260902010303 26 258 0.0 1.6 0.00 0.00 0.00 89 1013.1
20260902005805 26 258 0.0 0.0 0.00 0.00 0.00 89 1012.9
20260902005306 26 258 0.0 0.0 0.00 0.00 0.00 90 1012.8
20260902004804 26 258 0.0 0.0 0.00 0.00 0.00 89 1012.9
20260902004305 27 258 0.0 0.0 0.00 0.00 0.00 89 1012.7
20260902003804 27 258 0.0 0.0 0.00 0.00 0.00 89 1012.5
20260902003544 27 258 0.0 0.0 0.00 0.00 0.00 88 1012.5
20260902002803 27 258 0.0 0.0 0.00 0.00 0.00 87 1012.4
20260902002306 27 258 0.0 0.0 0.00 0.00 0.00 84 1012.3
20260902001804 28 258 0.0 0.0 0.00 0.00 0.00 83 1012.1
20260902001303 28 258 0.0 0.0 0.00 0.00 0.00 82 1011.9
20260902000803 28 258 0.0 1.6 0.00 0.00 0.00 82 1011.9
20260902000304 28 258 0.0 1.6 0.00 0.00 0.00 83 1011.9
20260901235804 28 258 0.0 0.0 0.00 0.00 0.00 83 1011.8
20260901235543 28 258 0.0 0.0 0.00 0.00 0.00 83 1011.8
20260901234803 28 258 0.0 1.6 0.00 0.00 0.00 84 1011.8
20260901234303 28 258 0.0 1.6 0.00 0.00 0.00 84 1011.8
20260901233803 28 258 0.0 1.6 0.00 0.00 0.00 84 1011.8
20260901233303 28 258 0.0 0.0 0.00 0.00 0.00 83 1011.8
20260901232804 29 258 0.0 0.0 0.00 0.00 0.00 83 1012.0
20260901232306 29 258 0.0 0.0 0.00 0.00 0.00 82 1012.0
20260901231804 29 258 0.0 0.0 0.00 0.00 0.00 81 1012.0
20260901231303 29 258 0.0 0.0 0.00 0.00 0.00 80 1012.0
20260901231042 29 258 0.0 0.0 0.00 0.00 0.00 80 1011.9
20260901230304 30 258 0.0 0.0 0.00 0.00 0.00 80 1012.0
20260901225739 30 258 0.0 0.0 0.00 0.00 0.00 79 1012.1
20260901225238 30 258 0.0 0.0 0.00 0.00 0.00 78 1012.1
20260901224739 30 258 0.0 0.0 0.00 0.00 0.00 78 1012.1
20260901224237 30 258 0.0 0.0 0.00 0.00 0.00 77 1012.1
20260901223734 30 258 0.0 0.0 0.00 0.00 0.00 77 1012.0
20260901223234 30 258 0.0 1.6 0.00 0.00 0.00 76 1012.0
20260901222732 30 258 0.0 3.2 0.00 0.00 0.00 75 1012.0
20260901222233 30 258 0.0 3.2 0.00 0.00 0.00 73 1012.1
20260901221732 30 258 0.0 3.2 0.00 0.00 0.00 73 1012.1
20260901221233 30 282 0.0 0.0 0.00 0.00 0.00 74 1012.1
20260901220731 31 282 0.0 0.0 0.00 0.00 0.00 73 1012.0
20260901220232 31 282 0.0 1.6 0.00 0.00 0.00 72 1012.1
20260901215732 31 282 0.0 1.6 0.00 0.00 0.00 72 1012.1
20260901215233 31 282 0.0 0.0 0.00 0.00 0.00 71 1012.4
20260901215014 31 282 0.0 1.6 0.00 0.00 0.00 69 1012.4
20260901214505 32 282 0.0 3.2 0.00 0.00 0.00 70 1012.4
20260901213726 32 282 1.6 3.2 0.00 0.00 0.00 68 1012.3
20260901213227 32 224 0.0 1.6 0.00 0.00 0.00 68 1012.3
20260901212727 32 224 0.0 1.6 0.00 0.00 0.00 65 1012.4
20260901212504 33 282 0.0 3.2 0.00 0.00 0.00 65 1012.4
20260901211722 33 282 0.0 3.2 0.00 0.00 0.00 66 1012.4
20260901211222 33 285 0.0 1.6 0.00 0.00 0.00 66 1012.3
20260901210723 33 272 0.0 3.2 0.00 0.00 0.00 64 1012.3
20260901210447 33 268 1.6 3.2 0.00 0.00 0.00 63 1012.4
20260901205945 33 247 0.0 4.8 0.00 0.00 0.00 63 1012.4
20260901205208 33 247 0.0 4.8 0.00 0.00 0.00 63 1012.4
20260901204947 33 289 0.0 1.6 0.00 0.00 0.00 67 1012.5
20260901204206 33 289 0.0 4.8 0.00 0.00 0.00 63 1012.5
20260901203705 33 289 0.0 4.8 0.00 0.00 0.00 63 1012.4
20260901203202 33 285 0.0 4.8 0.00 0.00 0.00 62 1012.6
20260901202943 33 285 0.0 4.8 0.00 0.00 0.00 62 1012.6